Location: Rounton
(54.4000°N, 1.3500°W)
Time: 21:35:27
(UTC+01:00)

deb Delta 126 - Pass Details

Date: 03 July 2022
Orbit: 1120 x 1970 km, 101.5° (Epoch: 17 August)

Event Time Altitude Azimuth Distance (km) Brightness Sun altitude
Rises 00:23:56 0° 31° (NNE) 4,965 ? -12.0°
Reaches altitude 10° 00:27:21 10° 20° (NNE) 4,084 ? -12.1°
Maximum altitude 00:35:04 27° 329° (NNW) 3,123 ? -12.3°
Drops below altitude 10° 00:43:18 10° 279° (W) 4,385 ? -12.4°
Sets 00:47:10 0° 269° (W) 5,398 ? -12.5°
